Location: Medoc Mountain State Park
(36.2578°N, 77.8786°W)
Time: 17:16:06
(UTC-05:00)

Daily predictions for brighter satellites

Satellite Brightness Start Highest point End
(mag) Time Altitude Azimuth Time Altitude Azimuth Time Altitude Azimuth
CZ-2C R/B 2.6 17:20:35 10° SSE 17:25:27 53° ENE 17:30:28 10° N
Timation 1 Rocket 4.5 17:19:50 10° S 17:25:39 59° ESE 17:31:31 10° NNE
Cosmos 1500 3.5 17:22:11 10° N 17:25:53 44° E 17:29:35 10° SSE
IRS-1A Rocket 4.5 17:21:27 10° S 17:26:56 79° WSW 17:32:29 10° NNW
BREEZE-M DEB (TANK) 4.0 17:21:02 10° NW 17:27:11 60° SW 17:30:45 10° SE
Nadezhda 3 Rocket 4.3 17:22:10 10° SSE 17:28:02 47° E 17:34:01 10° NNE
Cosmos 1743 3.9 17:25:16 10° NNE 17:28:20 22° ENE 17:31:23 10° SE
Cosmos 1455 Rocket 3.7 17:32:40 10° NNW 17:37:02 63° W 17:41:25 10° S
Delta 2 Rocket 3.0 17:37:33 10° W 17:41:04 82° S 17:44:47 11° E
Cosmos 2056 Rocket 4.2 17:39:07 10° SSE 17:43:56 35° E 17:48:44 10° NE
Cosmos 1484 Rocket 3.6 17:40:55 10° SE 17:44:05 27° ENE 17:47:15 10° NNE
SKYMED 2 4.3 17:41:10 10° NNE 17:45:07 34° E 17:49:03 10° SSE
ATLAS 2AS CENTAUR R/B 4.1 17:38:11 10° NW 17:45:44 48° WSW 17:52:43 10° S
GRACE-1 4.5 17:44:11 10° SSE 17:46:45 34° E 17:49:18 10° NNE
SJ-7 4.4 17:43:53 10° SSE 17:48:07 78° ENE 17:52:22 10° N
SMAP 3.1 17:45:28 10° SSE 17:50:06 88° WSW 17:54:47 10° NNW
Cosmos 1809 Rocket 4.4 17:44:58 10° N 17:51:08 77° E 17:57:13 10° S
Cosmos 2369 Rocket 3.7 17:50:34 10° SE 17:53:42 15° E 17:54:58 14° E
CORIOLIS 4.1 17:48:43 10° SSE 17:54:07 86° ENE 17:59:32 10° NNW
Cosmos 1624 Rocket 4.2 17:51:44 10° S 17:56:43 51° ESE 18:01:46 10° NNE
Cosmos 1975 3.8 17:54:18 10° NNW 17:58:14 50° W 18:02:07 10° SSW
SL-24 DEB 4.2 17:53:42 10° N 17:58:25 90° ENE 18:03:05 10° S
Meteor 1-13 Rocket 4.3 17:55:46 10° S 18:01:27 89° W 18:07:19 10° N
Meteor 2-4 Rocket 3.8 17:56:51 10° SSE 18:02:00 50° E 18:07:09 10° NNE
Okean 1-7 Rocket 3.5 17:57:59 10° S 18:02:29 84° E 18:06:58 10° N
Cosmos 1371 Rocket 4.0 17:57:21 10° S 18:02:41 74° ESE 18:08:03 10° NNE
CZ-4 R/B 4.5 18:00:35 10° SSE 18:04:43 86° WSW 18:08:54 10° NNW
CZ-4 R/B 3.0 18:02:14 10° SSW 18:06:08 39° W 18:10:01 10° NNW
Tiangong 1 2.6 18:05:59 10° WNW 18:08:29 23° N 18:09:19 20° NNE
SPOT 3 Rocket 4.3 18:05:24 10° S 18:10:28 55° W 18:15:33 10° NNW
MSX 3.8 18:05:06 10° SSE 18:10:51 88° WSW 18:16:38 10° NNW
Cosmos 1934 Rocket 4.2 18:07:51 10° N 18:13:53 49° E 18:19:58 10° SSE
COSMOS 2487 4.5 18:10:51 10° NW 18:14:05 32° WSW 18:17:18 10° SSW
NOSS 7 (H) 4.2 18:11:14 10° SSW 18:14:40 79° ESE 18:16:13 29° NE
Cosmos 1340 3.4 18:15:41 10° SSE 18:18:56 31° E 18:18:56 31° E
Cosmos 1535 Rocket 4.4 18:17:53 10° N 18:24:10 77° E 18:30:20 10° S
Cosmos 1606 Rocket 3.7 18:20:31 10° N 18:24:54 52° E 18:29:15 10° SSE
Cosmos 1452 Rocket 3.9 18:27:57 10° S 18:32:48 40° ESE 18:33:51 36° ENE
COSMO-SKYMED 1 3.0 18:28:55 10° N 18:33:13 64° WNW 18:37:29 10° SSW
GEOS 3 Rocket 4.5 18:36:10 28° NE 18:36:10 28° NE 18:40:02 10° NNW
Cosmos 2239 Rocket 4.5 18:29:46 10° N 18:35:58 83° W 18:42:06 10° S
Cosmos 1190 Rocket 3.9 18:31:04 10° N 18:36:14 58° ENE 18:41:20 10° SSE
Cosmos 1025 Rocket 3.6 18:33:07 10° SSW 18:37:25 60° W 18:41:47 10° N
Cosmos 1666 2.7 18:36:15 10° N 18:40:08 83° W 18:44:01 10° S
Abrixas 3.6 18:37:59 10° WNW 18:40:47 41° SW 18:41:15 37° SSW
Cosmos 1821 Rocket 4.2 18:42:30 10° NNW 18:48:33 68° W 18:54:35 10° S
Cosmos 1833 Rocket 3.8 18:47:32 10° NW 18:52:50 44° WSW 18:58:07 10° S
Cosmos 1605 Rocket 3.8 18:53:08 10° N 18:59:25 80° E 19:05:34 10° S
CZ-3B DEB 4.5 18:55:45 10° NW 19:00:36 24° N 19:04:32 19° NNE
Cosmos 2058 Rocket 4.1 18:56:18 10° N 19:02:42 34° S 19:05:11 10° S
Cosmos 2082 Rocket 4.1 18:57:16 10° NW 19:02:09 30° WSW 19:07:02 10° SSW
BREEZE M DEB (TANK) 4.3 19:08:37 10° W 19:13:02 21° NW 19:13:17 21° NNW
NOSS 3-4 (A) 4.2 19:15:01 10° NW 19:22:03 64° WSW 19:29:29 10° SSE
NOSS 3-4 (C) 4.2 19:15:07 10° NW 19:22:10 65° WSW 19:29:36 10° SSE
Cosmos 407 Rocket 4.1 19:21:20 10° NNW 19:26:21 55° WSW 19:31:23 10° S
BREEZE M DEB (TANK) 4.1 19:26:26 10° NW 19:31:28 75° NE 19:34:19 52° ESE
Cosmos 2369 Rocket 2.5 19:31:29 10° SSW 19:36:50 62° W 19:36:50 62° W
FALCON 9 R/B 2.9 19:32:19 10° W 19:49:06 76° SSW 19:49:06 76° SSW
ATLAS 3B CENTAUR R/B 3.9 19:44:16 10° W 19:59:02 42° SSW 20:00:27 39° S
Cosmos 1943 Rocket 4.4 19:59:57 10° SSW 20:01:06 17° SSW 20:01:06 17° SSW
